Time,TemperatureF,DewpointF,PressureIn,WindDirection,WindDirectionDegrees,WindSpeedMPH,WindSpeedGustMPH,Humidity,HourlyPrecipIn,Conditions,Clouds,dailyrainin,SoftwareType,DateUTC
2013-08-24 00:06:00,56.9,54.0,30.15,SW,232,0.0,1.0,90,0.00,,,0.00,weatherlink.com 1.10,2013-08-24 04:06:00,
2013-08-24 00:20:00,56.6,54.0,30.15,SW,226,0.0,1.0,91,0.00,,,0.00,weatherlink.com 1.10,2013-08-24 04:20:00,
2013-08-24 00:35:00,56.4,54.0,30.15,WSW,255,0.0,2.0,92,0.00,,,0.00,weatherlink.com 1.10,2013-08-24 04:35:00,
2013-08-24 00:49:00,56.7,54.0,30.15,SW,220,1.0,2.0,92,0.00,,,0.00,weatherlink.com 1.10,2013-08-24 04:49:00,
2013-08-24 01:04:00,56.6,54.0,30.15,SW,225,0.0,2.0,92,0.00,,,0.00,weatherlink.com 1.10,2013-08-24 05:04:00,
2013-08-24 01:18:00,56.5,54.0,30.15,SW,217,0.0,1.0,91,0.00,,,0.00,weatherlink.com 1.10,2013-08-24 05:18:00,
2013-08-24 01:32:00,56.3,54.0,30.15,SW,218,0.0,2.0,91,0.00,,,0.00,weatherlink.com 1.10,2013-08-24 05:32:00,
2013-08-24 01:47:00,56.1,54.0,30.16,SW,223,1.0,2.0,91,0.00,,,0.00,weatherlink.com 1.10,2013-08-24 05:47:00,
2013-08-24 02:01:00,55.9,54.0,30.16,SW,222,1.0,1.0,92,0.00,,,0.00,weatherlink.com 1.10,2013-08-24 06:01:00,
2013-08-24 02:15:00,55.7,54.0,30.16,SW,236,0.0,1.0,93,0.00,,,0.00,weatherlink.com 1.10,2013-08-24 06:15:00,
2013-08-24 02:30:00,55.8,54.0,30.16,SW,224,2.0,2.0,94,0.00,,,0.00,weatherlink.com 1.10,2013-08-24 06:30:00,
2013-08-24 02:44:00,56.1,54.0,30.17,WSW,238,1.0,2.0,94,0.00,,,0.00,weatherlink.com 1.10,2013-08-24 06:44:00,
2013-08-24 02:59:00,56.2,54.0,30.17,SW,219,1.0,3.0,94,0.00,,,0.00,weatherlink.com 1.10,2013-08-24 06:59:00,
2013-08-24 03:13:00,56.4,55.0,30.17,SW,228,1.0,2.0,94,0.00,,,0.00,weatherlink.com 1.10,2013-08-24 07:13:00,
2013-08-24 03:27:00,56.6,55.0,30.17,WSW,252,1.0,2.0,94,0.00,,,0.00,weatherlink.com 1.10,2013-08-24 07:27:00,
2013-08-24 03:41:00,56.8,55.0,30.17,SSW,209,1.0,2.0,94,0.00,,,0.00,weatherlink.com 1.10,2013-08-24 07:41:00,
2013-08-24 03:55:00,56.9,55.0,30.17,WSW,249,0.0,1.0,94,0.00,,,0.00,weatherlink.com 1.10,2013-08-24 07:55:00,
2013-08-24 04:09:00,56.9,55.0,30.17,SW,225,1.0,3.0,95,0.00,,,0.00,weatherlink.com 1.10,2013-08-24 08:09:00,
2013-08-24 04:23:00,57.3,56.0,30.18,WSW,239,0.0,4.0,95,0.00,,,0.00,weatherlink.com 1.10,2013-08-24 08:23:00,
2013-08-24 04:37:00,57.2,56.0,30.17,SSE,166,0.0,2.0,95,0.00,,,0.00,weatherlink.com 1.10,2013-08-24 08:37:00,
2013-08-24 04:52:00,56.8,55.0,30.18,SW,224,0.0,2.0,95,0.00,,,0.00,weatherlink.com 1.10,2013-08-24 08:52:00,
2013-08-24 05:06:00,56.5,55.0,30.18,SE,143,1.0,3.0,96,0.00,,,0.00,weatherlink.com 1.10,2013-08-24 09:06:00,
2013-08-24 05:20:00,56.5,55.0,30.18,SW,215,1.0,2.0,96,0.00,,,0.00,weatherlink.com 1.10,2013-08-24 09:20:00,
2013-08-24 05:35:00,56.5,55.0,30.18,SW,224,1.0,2.0,96,0.00,,,0.00,weatherlink.com 1.10,2013-08-24 09:35:00,
2013-08-24 06:04:00,57.5,56.0,30.18,SW,218,0.0,2.0,96,0.00,,,0.00,weatherlink.com 1.10,2013-08-24 10:04:00,
2013-08-24 06:18:00,58.0,57.0,30.18,SW,222,0.0,2.0,95,0.00,,,0.00,weatherlink.com 1.10,2013-08-24 10:18:00,
2013-08-24 06:32:00,58.3,57.0,30.19,SSW,203,0.0,2.0,94,0.00,,,0.00,weatherlink.com 1.10,2013-08-24 10:32:00,
2013-08-24 06:47:00,58.3,56.0,30.19,SW,224,2.0,2.0,93,0.00,,,0.00,weatherlink.com 1.10,2013-08-24 10:47:00,
2013-08-24 07:01:00,58.5,56.0,30.19,SSW,198,1.0,2.0,93,0.00,,,0.00,weatherlink.com 1.10,2013-08-24 11:01:00,
2013-08-24 07:16:00,58.7,57.0,30.20,SSW,205,1.0,2.0,94,0.00,,,0.00,weatherlink.com 1.10,2013-08-24 11:16:00,
2013-08-24 07:30:00,58.9,57.0,30.19,SW,214,0.0,2.0,93,0.00,,,0.00,weatherlink.com 1.10,2013-08-24 11:30:00,
2013-08-24 07:44:00,59.0,57.0,30.20,WSW,248,0.0,3.0,93,0.00,,,0.00,weatherlink.com 1.10,2013-08-24 11:44:00,
2013-08-24 07:59:00,59.6,57.0,30.20,WSW,245,1.0,3.0,92,0.00,,,0.00,weatherlink.com 1.10,2013-08-24 11:59:00,
2013-08-24 08:13:00,60.1,57.0,30.20,SSW,206,1.0,4.0,91,0.00,,,0.00,weatherlink.com 1.10,2013-08-24 12:13:00,
2013-08-24 08:28:00,60.7,58.0,30.20,SSW,205,1.0,3.0,90,0.00,,,0.00,weatherlink.com 1.10,2013-08-24 12:28:00,
2013-08-24 08:42:00,61.5,58.0,30.20,WSW,241,2.0,3.0,87,0.00,,,0.00,weatherlink.com 1.10,2013-08-24 12:42:00,
2013-08-24 08:56:00,62.4,58.0,30.20,SW,218,1.0,5.0,86,0.00,,,0.00,weatherlink.com 1.10,2013-08-24 12:56:00,
2013-08-24 09:11:00,63.2,58.0,30.20,WNW,294,1.0,4.0,84,0.00,,,0.00,weatherlink.com 1.10,2013-08-24 13:11:00,
2013-08-24 09:25:00,64.5,59.0,30.20,SSW,210,1.0,4.0,82,0.00,,,0.00,weatherlink.com 1.10,2013-08-24 13:25:00,
2013-08-24 09:40:00,65.7,59.0,30.20,SW,226,2.0,4.0,79,0.00,,,0.00,weatherlink.com 1.10,2013-08-24 13:40:00,
2013-08-24 09:54:00,67.0,59.0,30.19,SSW,212,0.0,4.0,76,0.00,,,0.00,weatherlink.com 1.10,2013-08-24 13:54:00,
2013-08-24 10:08:00,68.3,59.0,30.19,SW,233,0.0,4.0,73,0.00,,,0.00,weatherlink.com 1.10,2013-08-24 14:08:00,
2013-08-24 10:23:00,69.7,60.0,30.19,South,179,2.0,5.0,72,0.00,,,0.00,weatherlink.com 1.10,2013-08-24 14:23:00,
2013-08-24 10:37:00,70.7,60.0,30.19,WSW,254,1.0,5.0,69,0.00,,,0.00,weatherlink.com 1.10,2013-08-24 14:37:00,
2013-08-24 10:52:00,71.8,59.0,30.18,South,179,4.0,4.0,65,0.00,,,0.00,weatherlink.com 1.10,2013-08-24 14:52:00,
2013-08-24 11:06:00,72.5,60.0,30.18,SW,233,1.0,7.0,64,0.00,,,0.00,weatherlink.com 1.10,2013-08-24 15:06:00,
2013-08-24 11:20:00,73.3,60.0,30.18,SW,223,2.0,8.0,63,0.00,,,0.00,weatherlink.com 1.10,2013-08-24 15:20:00,
2013-08-24 11:35:00,73.9,58.0,30.18,SSE,163,1.0,8.0,58,0.00,,,0.00,weatherlink.com 1.10,2013-08-24 15:35:00,
2013-08-24 11:49:00,74.6,58.0,30.19,WNW,298,2.0,6.0,57,0.00,,,0.00,weatherlink.com 1.10,2013-08-24 15:49:00,
2013-08-24 12:04:00,75.8,60.0,30.18,SSW,211,1.0,5.0,59,0.00,,,0.00,weatherlink.com 1.10,2013-08-24 16:04:00,
2013-08-24 12:18:00,76.5,60.0,30.18,SSW,213,2.0,8.0,57,0.00,,,0.00,weatherlink.com 1.10,2013-08-24 16:18:00,
2013-08-24 12:32:00,77.3,61.0,30.18,WSW,240,1.0,4.0,57,0.00,,,0.00,weatherlink.com 1.10,2013-08-24 16:32:00,
2013-08-24 12:47:00,78.3,62.0,30.18,South,179,2.0,5.0,58,0.00,,,0.00,weatherlink.com 1.10,2013-08-24 16:47:00,
2013-08-24 13:01:00,78.7,60.0,30.18,SSW,195,2.0,9.0,53,0.00,,,0.00,weatherlink.com 1.10,2013-08-24 17:01:00,
2013-08-24 13:16:00,79.7,62.0,30.17,West,259,1.0,7.0,54,0.00,,,0.00,weatherlink.com 1.10,2013-08-24 17:16:00,
2013-08-24 13:30:00,80.0,60.0,30.17,South,185,3.0,11.0,51,0.00,,,0.00,weatherlink.com 1.10,2013-08-24 17:30:00,
2013-08-24 13:44:00,80.1,60.0,30.16,SW,223,0.0,8.0,50,0.00,,,0.00,weatherlink.com 1.10,2013-08-24 17:44:00,
2013-08-24 13:59:00,81.2,61.0,30.17,SW,217,3.0,6.0,50,0.00,,,0.00,weatherlink.com 1.10,2013-08-24 17:59:00,
2013-08-24 14:13:00,81.9,60.0,30.16,WNW,295,0.0,6.0,48,0.00,,,0.00,weatherlink.com 1.10,2013-08-24 18:13:00,
2013-08-24 14:28:00,82.5,62.0,30.15,WSW,240,3.0,7.0,50,0.00,,,0.00,weatherlink.com 1.10,2013-08-24 18:28:00,
2013-08-24 14:42:00,81.8,62.0,30.15,SSW,213,0.0,7.0,51,0.00,,,0.00,weatherlink.com 1.10,2013-08-24 18:42:00,
2013-08-24 14:57:00,80.8,62.0,30.15,WSW,248,3.0,7.0,52,0.00,,,0.00,weatherlink.com 1.10,2013-08-24 18:57:00,
2013-08-24 15:11:00,80.7,62.0,30.15,SW,224,4.0,7.0,53,0.00,,,0.00,weatherlink.com 1.10,2013-08-24 19:11:00,
2013-08-24 15:25:00,79.6,61.0,30.15,WSW,240,2.0,11.0,54,0.00,,,0.00,weatherlink.com 1.10,2013-08-24 19:25:00,
2013-08-24 15:40:00,78.5,62.0,30.14,SW,222,3.0,8.0,58,0.00,,,0.00,weatherlink.com 1.10,2013-08-24 19:40:00,
2013-08-24 15:54:00,77.9,64.0,30.15,SW,229,2.0,7.0,62,0.00,,,0.00,weatherlink.com 1.10,2013-08-24 19:54:00,
2013-08-24 16:08:00,77.1,63.0,30.14,SSE,165,4.0,8.0,62,0.00,,,0.00,weatherlink.com 1.10,2013-08-24 20:08:00,
2013-08-24 16:23:00,76.7,61.0,30.14,SW,231,4.0,10.0,58,0.00,,,0.00,weatherlink.com 1.10,2013-08-24 20:23:00,
2013-08-24 16:37:00,76.1,60.0,30.13,SSW,206,8.0,11.0,57,0.00,,,0.00,weatherlink.com 1.10,2013-08-24 20:37:00,
2013-08-24 16:52:00,75.6,59.0,30.13,SW,215,4.0,10.0,56,0.00,,,0.00,weatherlink.com 1.10,2013-08-24 20:52:00,
2013-08-24 17:06:00,75.2,57.0,30.13,SW,221,3.0,9.0,54,0.00,,,0.00,weatherlink.com 1.10,2013-08-24 21:06:00,
2013-08-24 17:21:00,74.8,58.0,30.12,South,181,6.0,9.0,56,0.00,,,0.00,weatherlink.com 1.10,2013-08-24 21:21:00,
2013-08-24 17:35:00,74.6,59.0,30.12,SSW,205,3.0,11.0,58,0.00,,,0.00,weatherlink.com 1.10,2013-08-24 21:35:00,
2013-08-24 17:49:00,74.2,59.0,30.12,WSW,252,3.0,11.0,60,0.00,,,0.00,weatherlink.com 1.10,2013-08-24 21:49:00,
2013-08-24 18:04:00,74.5,60.0,30.11,WSW,245,3.0,10.0,60,0.00,,,0.00,weatherlink.com 1.10,2013-08-24 22:04:00,
2013-08-24 18:18:00,74.8,60.0,30.11,South,186,2.0,11.0,60,0.00,,,0.00,weatherlink.com 1.10,2013-08-24 22:18:00,
2013-08-24 18:32:00,75.1,61.0,30.11,SW,224,3.0,6.0,61,0.00,,,0.00,weatherlink.com 1.10,2013-08-24 22:32:00,
2013-08-24 18:47:00,74.5,62.0,30.11,SSW,211,4.0,8.0,64,0.00,,,0.00,weatherlink.com 1.10,2013-08-24 22:47:00,
2013-08-24 19:01:00,74.0,62.0,30.11,South,172,2.0,8.0,66,0.00,,,0.00,weatherlink.com 1.10,2013-08-24 23:01:00,
2013-08-24 19:16:00,72.4,62.0,30.11,South,191,3.0,9.0,71,0.00,,,0.00,weatherlink.com 1.10,2013-08-24 23:16:00,
2013-08-24 19:30:00,71.8,63.0,30.11,SSW,211,2.0,7.0,74,0.00,,,0.00,weatherlink.com 1.10,2013-08-24 23:30:00,
2013-08-24 19:45:00,71.6,64.0,30.10,WSW,257,5.0,9.0,77,0.00,,,0.00,weatherlink.com 1.10,2013-08-24 23:45:00,
2013-08-24 19:59:00,71.0,64.0,30.09,South,176,2.0,10.0,78,0.00,,,0.00,weatherlink.com 1.10,2013-08-24 23:59:00,
2013-08-24 20:13:00,70.3,63.0,30.10,South,180,2.0,9.0,78,0.00,,,0.00,weatherlink.com 1.10,2013-08-25 00:13:00,
2013-08-24 20:28:00,69.5,63.0,30.10,SSW,197,1.0,4.0,79,0.00,,,0.00,weatherlink.com 1.10,2013-08-25 00:28:00,
2013-08-24 20:42:00,68.6,61.0,30.09,SE,143,2.0,7.0,78,0.00,,,0.00,weatherlink.com 1.10,2013-08-25 00:42:00,
2013-08-24 20:57:00,67.8,60.0,30.09,SSW,204,1.0,9.0,76,0.00,,,0.00,weatherlink.com 1.10,2013-08-25 00:57:00,
2013-08-24 21:11:00,67.3,59.0,30.09,South,185,4.0,9.0,74,0.00,,,0.00,weatherlink.com 1.10,2013-08-25 01:11:00,
2013-08-24 21:25:00,67.2,58.0,30.10,SW,219,2.0,8.0,73,0.00,,,0.00,weatherlink.com 1.10,2013-08-25 01:25:00,
2013-08-24 21:40:00,66.6,58.0,30.10,SW,221,2.0,7.0,74,0.00,,,0.00,weatherlink.com 1.10,2013-08-25 01:40:00,
2013-08-24 21:54:00,66.4,58.0,30.10,SW,226,3.0,11.0,75,0.00,,,0.00,weatherlink.com 1.10,2013-08-25 01:54:00,
2013-08-24 22:08:00,66.3,58.0,30.10,SE,133,9.0,9.0,75,0.00,,,0.00,weatherlink.com 1.10,2013-08-25 02:08:00,
2013-08-24 22:23:00,66.2,58.0,30.09,SW,219,4.0,10.0,74,0.00,,,0.00,weatherlink.com 1.10,2013-08-25 02:23:00,
2013-08-24 22:37:00,66.2,57.0,30.09,WSW,255,1.0,7.0,73,0.00,,,0.00,weatherlink.com 1.10,2013-08-25 02:37:00,
2013-08-24 22:51:00,66.4,57.0,30.08,SSW,203,1.0,9.0,73,0.00,,,0.00,weatherlink.com 1.10,2013-08-25 02:51:00,
2013-08-24 23:05:00,66.1,58.0,30.07,WSW,242,3.0,6.0,75,0.00,,,0.00,weatherlink.com 1.10,2013-08-25 03:05:00,
2013-08-24 23:20:00,65.6,58.0,30.07,SSW,205,6.0,10.0,76,0.00,,,0.00,weatherlink.com 1.10,2013-08-25 03:20:00,
2013-08-24 23:34:00,65.3,58.0,30.08,SW,231,3.0,7.0,77,0.00,,,0.00,weatherlink.com 1.10,2013-08-25 03:34:00,
2013-08-24 23:49:00,65.1,58.0,30.07,NW,316,4.0,11.0,78,0.00,,,0.00,weatherlink.com 1.10,2013-08-25 03:49:00,